Temp
9 9 9 10 10 9 9 8 8 8 7 8 8 8 7 7 7 7 8 8 8 8 8 8 8 8 8 8 8 8 8 8 8 8 8 8 8 7 7 7 7 7 7 7 7 7 7 7 7
9 9 9 9 9 9 9 8 8 8 8 8 8 8 8 8 8 8 8 8 8 8 8 8 8 8 8 8 8 8 8 8 8 8 8 8 8 8 7 7 7 7 7 7 7 7 7 7 7
8 9 9 9 9 9 8 8 8 8 8 8 8 8 8 8 9 9 9 9 9 9 9 9 9 8 8 8 8 8 8 8 8 8 8 8 8 8 8 8 7 7 7 7 7 7 7 7 7
8 9 9 9 9 9 8 8 8 8 8 8 8 8 8 9 9 9 9 9 9 9 9 9 9 9 9 8 8 8 8 8 8 8 8 8 8 8 8 8 8 7 7 7 7 7 7 7 7
8 8 8 8 8 8 8 8 8 9 9 9 8 8 9 9 9 9 10 10 10 10 10 9 9 9 9 9 9 8 8 8 8 8 8 8 8 8 8 8 8 7 7 7 7 7 7 7 7
8 8 8 8 8 8 8 8 8 8 8 8 8 9 9 10 10 10 10 10 10 10 10 10 10 9 9 9 9 9 8 8 8 8 8 8 7 7 7 7 7 7 7 7 7 7 7 7 7
8 8 8 8 8 8 8 8 8 8 8 8 8 9 10 10 10 10 10 10 10 10 10 10 10 10 9 9 9 9 8 8 8 8 8 8 8 7 7 7 7 7 7 7 7 7 7 7 7
8 8 8 8 8 8 8 8 8 8 8 9 9 10 10 10 10 11 11 11 11 10 10 10 10 10 10 9 9 9 8 8 8 8 8 7 7 8 8 8 7 7 7 7 7 7 7 7 7
8 8 8 8 8 8 8 8 8 8 9 9 10 10 10 11 11 11 11 11 11 11 11 10 10 10 10 9 9 9 9 8 8 8 8 7 7 7 7 7 7 7 7 7 7 7 7 7 7
8 8 8 8 8 8 8 8 9 9 9 10 10 11 11 11 11 11 11 11 11 11 11 11 10 10 10 9 9 9 8 8 8 8 7 7 7 7 7 7 7 7 7 7 7 7 7 7 7
8 8 8 8 8 8 8 9 9 9 10 10 11 11 11 12 12 12 11 11 11 11 11 11 10 10 10 10 9 9 9 8 8 8 8 7 7 7 7 7 7 7 7 7 7 7 7 7 6
8 8 8 8 8 8 9 9 9 10 10 10 11 12 12 12 12 12 12 12 12 11 11 11 11 10 10 10 9 9 9 8 8 8 8 8 8 7 7 7 7 7 7 7 7 7 7 7 7
8 9 9 9 9 9 9 9 9 10 11 11 12 12 12 12 12 12 12 12 12 12 11 11 11 10 10 10 9 9 9 9 8 8 8 8 8 7 7 7 7 7 7 7 7 7 7 7 7
9 9 9 9 9 9 9 10 10 10 11 12 12 12 12 12 12 12 12 12 12 12 12 11 11 10 10 10 9 9 9 9 8 8 8 8 8 7 7 7 7 7 7 7 7 6 6 6 6
9 9 9 9 9 9 9 10 10 11 11 12 12 12 12 13 12 13 13 12 12 12 11 11 11 10 10 10 9 9 9 9 9 8 8 8 8 7 7 7 7 7 7 7 7 7 6 6 6
9 9 9 9 10 10 10 11 11 11 11 12 12 13 13 13 13 13 13 12 12 12 12 11 11 11 10 10 10 9 9 9 9 8 8 8 8 8 7 7 7 7 7 7 7 6 6 6 6
9 10 10 10 10 10 10 11 12 12 12 12 12 13 13 13 13 13 13 13 12 12 12 11 11 11 10 10 9 9 9 9 8 8 8 8 8 8 8 7 7 7 7 7 7 7 6 6 6
9 9 10 10 10 11 11 11 12 13 13 13 13 13 13 13 13 13 13 13 12 12 12 12 11 11 10 10 9 9 9 8 8 8 8 8 8 8 8 7 7 7 7 7 6 6 6 6 6
9 9 10 10 10 11 11 12 12 13 14 13 13 13 14 13 13 13 13 13 13 12 12 12 11 11 10 10 9 9 8 8 8 8 8 8 8 7 7 7 7 7 6 6 6 6 6 5 6
9 9 10 10 10 10 11 12 12 13 13 13 13 13 13 13 13 13 13 13 12 12 12 11 11 11 10 10 9 9 8 8 8 8 8 8 7 7 7 6 6 6 6 6 6 5 5 5 5
9 9 9 9 10 11 11 12 12 12 12 13 13 13 13 13 13 13 12 12 12 12 11 11 11 10 10 9 9 9 8 8 8 8 8 8 7 7 7 6 6 6 6 5 5 5 5 5 5
9 9 9 9 9 10 11 12 12 12 12 12 12 13 13 13 13 13 12 12 12 12 11 11 10 10 10 9 9 8 8 8 8 7 8 7 7 7 7 7 6 6 6 6 5 5 5 5 5
9 9 9 9 9 10 10 11 12 12 12 12 12 13 13 13 13 12 12 12 12 11 11 10 10 9 9 9 9 8 8 8 8 7 7 7 7 7 7 7 6 6 6 6 6 6 5 5 5
8 9 9 9 9 9 10 10 13 13 13 12 12 13 13 13 12 12 12 12 12 11 11 10 10 9 9 9 9 9 8 8 8 8 7 7 7 7 6 7 7 6 6 6 6 6 6 6 5
8 9 8 8 8 8 9 10 13 13 12 12 12 12 12 12 12 12 12 12 11 11 11 10 10 9 9 9 9 9 9 9 8 8 8 7 7 6 6 7 7 6 6 6 6 6 6 6 6
8 8 9 9 7 8 9 11 14 13 12 12 12 12 12 12 12 12 12 11 11 11 11 10 10 9 9 9 9 9 9 9 8 8 8 8 7 6 6 6 6 6 6 6 6 6 6 6 6
8 8 9 9 7 7 10 12 13 13 13 13 12 12 12 12 12 12 12 12 11 11 11 10 10 10 9 9 9 9 9 9 9 8 8 8 7 7 7 6 6 6 6 6 6 6 6 6 6
8 8 8 9 6 8 9 11 15 14 14 13 13 13 12 12 12 12 12 11 11 11 11 11 10 10 10 9 9 9 9 9 8 8 8 8 8 7 7 6 6 6 6 6 6 6 5 6 5
8 8 8 9 9 7 8 13 15 15 14 14 13 13 12 12 12 12 12 11 11 11 11 11 10 10 10 9 9 9 9 8 8 8 8 8 7 7 7 7 6 6 6 6 6 5 5 5 5
9 8 9 9 9 8 8 14 15 15 14 13 13 13 12 12 12 12 12 11 11 11 11 11 10 10 10 9 9 9 8 8 8 7 7 7 7 7 7 6 6 6 6 5 5 5 5 5 5
Height
3215 3215 3216 3216 3220 3217 3216 3217 3216 3215 3214 3212 3211 3211 3211 3210 3210 3215 3212 3211 3211 3211 3211 3211 3210 3210 3209 3209 3208 3207 3206 3205 3204 3203 3202 3201 3199 3198 3197 3196 3195 3194 3193 3191 3189 3188 3187 3186 3185
3214 3215 3216 3215 3217 3216 3217 3216 3215 3215 3213 3212 3211 3210 3210 3211 3210 3210 3211 3211 3212 3212 3212 3212 3212 3212 3212 3211 3210 3210 3209 3208 3207 3205 3204 3202 3201 3199 3198 3197 3196 3195 3194 3192 3190 3188 3188 3187 3186
3213 3215 3216 3216 3216 3216 3216 3216 3215 3214 3213 3212 3211 3210 3210 3210 3210 3211 3211 3211 3212 3213 3213 3213 3213 3214 3214 3213 3213 3212 3211 3210 3209 3207 3206 3205 3204 3202 3201 3199 3198 3196 3195 3193 3191 3189 3188 3187 3185
3213 3215 3216 3215 3216 3216 3216 3215 3215 3214 3213 3212 3211 3210 3210 3210 3210 3211 3211 3212 3213 3214 3214 3214 3214 3214 3214 3214 3213 3213 3212 3211 3210 3209 3208 3207 3206 3204 3203 3201 3198 3196 3194 3193 3192 3191 3190 3188 3187
3211 3213 3214 3214 3215 3215 3215 3215 3214 3213 3213 3212 3211 3210 3210 3210 3211 3212 3213 3214 3214 3215 3215 3215 3215 3215 3215 3214 3214 3213 3213 3212 3211 3210 3209 3208 3206 3205 3203 3202 3201 3199 3198 3196 3193 3192 3191 3190 3188
3211 3212 3213 3213 3214 3214 3214 3214 3213 3213 3212 3211 3211 3210 3211 3211 3212 3213 3214 3215 3215 3215 3215 3215 3215 3215 3215 3215 3214 3214 3213 3212 3211 3211 3210 3209 3207 3206 3205 3203 3201 3200 3198 3196 3195 3193 3192 3190 3189
3209 3210 3211 3212 3213 3213 3213 3213 3213 3212 3211 3211 3211 3211 3212 3212 3213 3213 3215 3215 3216 3216 3216 3216 3215 3215 3215 3215 3214 3214 3213 3212 3211 3210 3209 3208 3207 3205 3204 3203 3201 3200 3198 3196 3195 3193 3190 3189 3188
3208 3209 3210 3211 3211 3212 3212 3212 3211 3211 3210 3210 3210 3211 3213 3212 3213 3214 3215 3216 3216 3216 3217 3216 3216 3216 3215 3215 3214 3214 3213 3213 3212 3211 3209 3208 3207 3205 3204 3203 3201 3200 3198 3196 3194 3193 3191 3189 3188
3206 3209 3209 3210 3210 3211 3211 3210 3210 3210 3209 3209 3210 3211 3211 3212 3213 3214 3215 3216 3216 3217 3216 3216 3216 3216 3215 3215 3214 3214 3213 3212 3211 3210 3209 3208 3207 3206 3204 3203 3202 3200 3199 3197 3195 3193 3191 3189 3188
3206 3208 3208 3209 3209 3209 3209 3209 3209 3209 3208 3208 3209 3210 3211 3213 3214 3214 3215 3215 3215 3216 3216 3216 3215 3215 3216 3215 3214 3214 3213 3212 3211 3211 3210 3209 3207 3206 3205 3203 3202 3200 3199 3197 3195 3194 3192 3190 3188
3206 3207 3207 3208 3208 3208 3208 3207 3207 3207 3207 3207 3208 3210 3211 3212 3213 3214 3214 3215 3215 3216 3216 3216 3215 3215 3215 3215 3214 3214 3213 3212 3211 3211 3210 3209 3208 3206 3205 3203 3201 3200 3198 3196 3194 3192 3191 3189 3188
3205 3206 3206 3207 3207 3207 3206 3205 3205 3205 3206 3206 3208 3209 3210 3212 3213 3213 3214 3214 3215 3215 3215 3215 3215 3215 3215 3215 3214 3213 3212 3211 3210 3210 3209 3208 3207 3205 3204 3202 3200 3199 3197 3195 3193 3191 3189 3187 3185
3204 3205 3205 3206 3206 3206 3205 3204 3204 3204 3204 3205 3207 3208 3209 3210 3212 3213 3213 3214 3214 3214 3214 3214 3214 3213 3214 3213 3213 3212 3211 3210 3209 3208 3208 3206 3205 3203 3202 3201 3200 3198 3196 3194 3192 3190 3188 3186 3185
3204 3205 3205 3206 3205 3205 3204 3203 3202 3204 3204 3204 3205 3207 3208 3209 3210 3211 3212 3212 3213 3213 3213 3212 3212 3212 3212 3212 3211 3211 3210 3209 3208 3207 3207 3205 3204 3202 3200 3199 3197 3196 3194 3192 3190 3188 3186 3184 3183
3205 3206 3205 3205 3205 3205 3204 3204 3203 3203 3203 3204 3205 3206 3207 3208 3209 3210 3211 3211 3211 3211 3211 3211 3211 3211 3210 3210 3209 3209 3208 3207 3206 3205 3204 3203 3202 3200 3198 3196 3195 3194 3192 3190 3188 3186 3184 3183 3180
3205 3206 3206 3205 3205 3204 3205 3204 3203 3203 3203 3203 3204 3205 3206 3207 3208 3209 3209 3209 3210 3210 3209 3209 3209 3209 3208 3208 3208 3207 3207 3206 3205 3204 3203 3202 3200 3198 3196 3194 3193 3191 3189 3187 3186 3184 3182 3180 3178
3205 3205 3205 3205 3204 3203 3204 3203 3202 3202 3202 3202 3203 3203 3204 3205 3206 3207 3208 3208 3208 3207 3207 3207 3207 3207 3207 3206 3206 3206 3205 3204 3203 3202 3201 3199 3198 3196 3194 3192 3190 3189 3187 3184 3182 3180 3178 3176 3175
3204 3204 3204 3204 3204 3203 3202 3202 3201 3201 3201 3201 3201 3202 3203 3204 3204 3205 3205 3205 3205 3205 3205 3205 3205 3205 3205 3204 3204 3203 3203 3202 3201 3200 3198 3196 3194 3192 3191 3189 3187 3185 3183 3181 3179 3177 3174 3172 3170
3202 3203 3202 3203 3202 3201 3201 3200 3199 3199 3199 3200 3201 3201 3202 3202 3202 3203 3203 3204 3204 3203 3203 3203 3203 3203 3202 3202 3201 3201 3201 3200 3199 3197 3195 3193 3190 3187 3186 3184 3182 3181 3179 3176 3174 3172 3170 3168 3166
3201 3201 3201 3201 3200 3200 3199 3199 3198 3198 3198 3199 3199 3199 3199 3200 3201 3202 3202 3202 3202 3202 3202 3202 3201 3201 3201 3201 3200 3200 3200 3198 3196 3193 3190 3187 3185 3183 3181 3179 3178 3176 3175 3172 3169 3168 3166 3164 3161
3200 3200 3200 3200 3198 3197 3197 3197 3197 3197 3197 3197 3197 3198 3198 3199 3199 3200 3200 3200 3201 3201 3200 3200 3200 3200 3199 3199 3199 3198 3197 3196 3192 3189 3185 3182 3179 3178 3176 3174 3172 3171 3169 3167 3165 3162 3161 3159 3157
3198 3198 3198 3198 3197 3196 3196 3196 3195 3195 3195 3196 3196 3196 3197 3197 3198 3198 3199 3199 3199 3200 3199 3199 3199 3198 3198 3197 3196 3195 3194 3191 3188 3184 3181 3178 3175 3172 3171 3169 3167 3166 3164 3162 3159 3157 3155 3153 3151
3198 3197 3197 3196 3195 3195 3195 3196 3192 3193 3194 3194 3195 3195 3195 3196 3197 3197 3197 3198 3198 3198 3198 3197 3197 3196 3195 3195 3193 3191 3189 3187 3184 3181 3177 3174 3171 3169 3166 3164 3162 3161 3159 3157 3154 3151 3149 3149 3146
3195 3196 3195 3195 3195 3194 3192 3195 3190 3191 3192 3192 3193 3194 3194 3195 3196 3196 3196 3197 3197 3196 3196 3195 3195 3194 3193 3191 3190 3188 3185 3183 3180 3177 3174 3171 3168 3165 3162 3159 3158 3156 3154 3152 3149 3147 3144 3142 3139
3194 3195 3195 3196 3195 3192 3191 3192 3187 3188 3190 3191 3192 3193 3193 3193 3194 3195 3195 3195 3195 3195 3195 3194 3193 3192 3190 3188 3186 3184 3182 3180 3177 3173 3170 3167 3164 3161 3158 3155 3153 3151 3149 3147 3144 3141 3138 3135 3133
3191 3193 3193 3192 3193 3189 3190 3185 3183 3185 3188 3189 3191 3191 3192 3192 3193 3194 3194 3194 3194 3194 3193 3193 3191 3189 3187 3185 3183 3181 3178 3175 3172 3169 3165 3162 3159 3156 3153 3150 3148 3146 3143 3140 3137 3135 3132 3129 3126
3188 3190 3192 3192 3191 3190 3184 3181 3181 3182 3185 3187 3189 3190 3190 3191 3192 3193 3193 3192 3192 3192 3191 3190 3189 3187 3184 3182 3180 3177 3174 3171 3168 3164 3161 3157 3154 3152 3149 3145 3143 3140 3137 3134 3131 3128 3126 3122 3119
3186 3189 3191 3190 3191 3189 3181 3178 3176 3177 3181 3184 3185 3188 3189 3190 3190 3191 3191 3191 3190 3189 3188 3187 3186 3184 3181 3179 3177 3174 3171 3167 3164 3160 3157 3153 3150 3147 3144 3140 3137 3134 3131 3128 3125 3122 3119 3115 3112
3182 3183 3186 3187 3185 3182 3181 3172 3171 3175 3178 3181 3183 3185 3186 3187 3188 3188 3188 3188 3187 3186 3185 3184 3183 3181 3178 3176 3173 3171 3167 3164 3160 3156 3152 3149 3145 3141 3138 3135 3132 3128 3125 3121 3118 3115 3112 3109 3105
3176 3178 3181 3182 3181 3179 3179 3172 3171 3173 3175 3178 3180 3182 3183 3184 3184 3184 3185 3184 3184 3183 3182 3181 3179 3177 3175 3172 3169 3166 3163 3159 3155 3151 3147 3143 3139 3135 3132 3128 3125 3122 3118 3114 3112 3108 3104 3101 3098
Wind_Speed
6 6 7 4 3 2 5 5 7 9 12 10 6 6 6 7 6 2 5 9 10 12 13 14 15 15 16 15 15 14 14 15 14 14 15 15 15 15 15 16 16 16 15 14 14 14 15 15 15
8 7 7 4 3 2 3 5 8 9 10 7 5 6 6 6 6 5 7 10 12 13 14 16 16 16 15 15 14 13 13 13 13 13 13 14 14 15 15 15 16 16 15 15 15 15 14 14 14
8 8 6 3 1 1 1 5 9 9 7 5 5 5 6 4 5 7 9 11 13 13 15 16 16 16 15 14 13 13 12 12 12 12 12 12 12 13 13 14 14 14 15 15 14 14 14 14 14
9 8 7 5 3 1 1 5 10 7 5 5 5 3 3 4 6 9 10 12 13 13 14 15 15 15 14 13 12 11 11 11 10 10 10 11 11 12 12 13 14 15 15 14 13 12 12 13 13
10 8 7 2 3 2 3 6 7 5 5 5 4 3 4 6 8 9 10 12 12 13 13 14 13 13 12 11 11 10 10 10 10 10 10 10 10 11 12 12 13 13 12 12 12 12 11 11 12
11 9 6 6 4 3 2 6 6 5 4 4 3 3 5 7 9 10 11 12 12 12 12 12 12 11 10 9 9 9 9 9 9 9 10 10 10 10 10 11 12 13 13 12 12 11 10 10 11
11 9 6 6 5 4 4 4 5 4 3 2 3 5 7 9 10 11 11 11 12 11 10 10 9 8 8 7 7 7 7 7 8 8 8 8 8 8 9 9 10 11 12 13 12 12 11 11 11
11 8 7 5 4 5 4 4 4 3 2 1 4 5 7 8 10 11 11 10 10 9 9 8 7 6 6 5 5 6 7 7 7 7 7 7 7 7 8 9 9 10 10 11 12 12 12 12 12
10 8 6 4 5 5 5 5 4 2 1 2 5 7 8 9 10 10 10 9 8 8 7 6 5 4 3 4 4 5 5 6 6 6 6 7 7 8 8 8 9 9 10 11 11 11 12 12 11
9 9 6 8 7 6 5 5 3 3 3 4 7 9 9 9 9 9 9 8 7 6 5 3 3 2 2 2 2 3 4 4 5 5 6 6 7 7 8 9 9 9 9 9 9 10 10 11 12
8 8 9 7 7 6 6 4 5 4 4 5 7 9 9 10 10 9 9 7 6 4 3 2 1 0 0 1 2 3 4 4 4 5 5 5 6 7 8 8 9 9 10 11 11 11 11 11 12
5 6 4 4 4 5 5 5 5 4 6 6 8 10 11 10 10 10 8 7 5 3 3 2 2 1 2 2 3 3 3 4 5 5 6 6 7 8 8 9 9 9 10 10 11 12 11 11 11
4 2 1 2 3 3 4 5 5 5 6 8 9 11 11 10 10 9 8 7 6 5 4 4 3 3 3 4 4 5 5 6 7 6 7 8 8 9 10 11 11 12 12 12 11 12 12 13 12
4 2 2 1 1 1 2 3 3 5 5 7 9 10 10 10 9 9 8 7 6 6 5 5 5 5 5 5 5 5 6 7 8 8 9 9 10 11 12 13 13 13 14 14 14 14 13 13 13
3 3 1 1 2 3 4 2 2 3 4 7 9 9 10 10 11 10 8 8 7 7 7 7 6 6 7 7 7 7 7 8 10 10 10 10 11 12 13 14 15 15 15 16 16 16 17 17 16
3 2 1 2 3 2 3 1 1 1 3 5 7 9 10 10 10 10 10 9 9 8 8 7 8 8 8 7 7 8 9 10 10 11 12 12 12 13 14 15 16 16 17 18 18 19 19 19 19
3 2 2 4 4 5 2 2 3 3 3 5 7 8 9 9 10 10 10 9 9 9 8 9 8 8 8 8 8 8 9 10 10 12 12 13 14 14 15 16 17 17 18 19 19 20 21 21 21
3 5 5 4 5 7 6 4 5 3 5 5 5 6 6 7 7 7 8 8 7 7 7 7 8 8 7 7 7 7 7 8 10 12 15 17 17 17 17 18 18 18 20 21 21 22 22 22 23
6 6 8 8 8 8 4 4 3 3 4 4 4 5 5 5 5 4 4 4 3 4 5 6 7 6 6 6 5 5 6 9 14 17 20 22 23 23 21 21 21 21 21 23 23 23 24 24 24
8 8 8 8 6 7 5 5 4 3 4 6 6 6 6 5 4 3 2 2 3 3 4 5 6 6 6 5 5 6 9 14 19 24 25 25 24 25 24 24 24 24 23 24 25 24 25 25 26
8 8 8 6 8 8 6 6 5 4 5 5 5 5 5 4 4 4 3 3 3 4 5 6 6 5 6 6 8 12 16 19 24 26 26 25 23 23 23 24 25 26 26 25 27 28 27 27 26
8 7 5 7 6 3 4 3 8 6 5 6 6 6 5 5 5 4 3 2 3 4 5 6 6 6 7 10 13 17 20 22 22 22 23 22 22 23 22 22 23 24 26 26 28 29 29 29 29
6 5 6 6 5 3 6 3 6 9 7 7 6 5 5 6 6 3 2 1 2 4 4 5 6 8 11 14 16 19 19 20 19 21 21 22 23 23 23 22 23 23 25 26 27 29 30 30 31
7 5 5 4 3 3 7 6 8 12 9 9 8 7 7 5 3 2 1 2 3 4 6 6 8 11 13 15 17 19 20 21 21 21 22 22 23 24 23 24 25 25 25 27 28 30 31 31 32
9 5 1 1 2 5 7 7 5 14 11 11 9 8 7 5 3 2 1 1 2 4 6 7 8 11 13 15 17 20 21 23 22 22 22 22 23 24 26 27 27 27 27 27 28 29 30 31 32
10 10 4 4 3 3 7 8 5 18 16 13 10 7 6 5 4 3 2 1 2 4 4 6 7 10 14 16 18 20 22 23 23 23 22 21 22 24 27 29 28 28 27 27 28 29 29 30 30
10 12 10 3 3 3 6 9 9 20 21 16 12 9 7 6 4 3 2 1 3 5 6 8 9 11 15 17 18 20 22 23 22 22 22 22 23 24 25 27 28 28 28 28 28 28 28 29 29
16 10 7 9 4 4 5 8 9 22 23 19 15 11 8 6 4 2 1 1 4 6 9 11 13 14 15 17 18 20 21 23 23 22 22 23 23 25 25 26 27 28 29 29 29 28 28 29 29
22 19 11 7 5 4 2 6 12 11 18 16 15 12 9 7 6 6 5 6 7 8 10 12 14 16 18 20 22 24 25 26 25 25 24 24 24 26 27 27 27 28 29 30 30 30 30 30 32
21 24 21 8 6 8 2 4 9 17 20 18 15 12 11 10 9 9 9 10 10 10 12 14 16 18 21 23 26 27 29 30 31 30 28 27 27 28 29 29 30 30 30 31 32 32 33 33 33
Wind_Direction
226 250 282 321 327 18 42 15 12 357 353 356 5 9 8 14 15 33 58 82 92 100 106 107 104 102 99 93 87 80 74 70 65 61 55 50 45 44 41 42 42 44 42 39 38 39 43 42 37
225 246 276 321 316 18 29 2 0 354 351 0 10 4 12 16 32 70 87 96 102 109 113 113 112 110 107 103 97 90 82 76 70 63 57 53 45 38 38 36 37 37 39 37 34 37 41 43 36
226 241 267 303 328 351 22 354 347 349 355 7 6 13 17 23 69 93 101 107 110 114 113 110 108 106 105 101 96 89 85 80 74 69 62 55 49 43 35 33 33 34 36 37 32 30 34 38 32
220 242 266 260 250 273 314 344 339 348 354 7 2 26 30 86 101 106 110 111 110 111 107 103 99 97 94 90 85 80 76 73 70 68 66 60 50 44 38 32 29 27 28 31 34 33 30 26 28
222 237 255 262 228 249 280 322 338 345 355 3 18 41 94 109 108 107 109 110 110 108 105 102 100 96 91 86 79 72 65 59 54 52 51 51 46 40 35 32 29 26 25 27 29 28 28 27 20
222 232 233 215 223 238 270 317 321 329 340 358 32 98 116 112 108 109 114 114 113 111 107 102 97 94 90 84 77 69 62 55 47 41 38 37 37 35 32 28 25 22 21 20 21 21 20 21 21
217 221 225 211 225 232 283 296 303 314 325 356 70 108 115 113 119 120 119 117 118 116 110 101 101 97 88 80 71 65 60 54 48 44 41 36 33 31 28 27 24 19 17 14 12 11 10 9 8
209 212 207 210 236 224 265 284 294 296 317 41 112 130 123 132 123 122 126 126 122 119 109 110 103 91 81 72 61 52 45 39 36 32 32 32 32 31 26 19 18 17 14 13 10 7 3 1 359
203 205 209 238 237 227 265 278 283 302 207 155 143 138 148 137 133 134 133 135 136 129 128 122 112 98 81 60 46 40 33 30 29 25 22 20 16 17 16 13 11 11 10 8 5 3 2 357 355
197 211 227 252 251 253 273 283 280 237 196 177 161 156 158 144 144 145 147 151 154 143 142 133 120 114 71 55 24 30 25 22 20 15 15 13 10 8 5 2 359 359 360 2 3 1 358 355 352
209 224 239 246 249 272 286 278 252 220 190 185 169 160 162 158 160 162 163 168 172 165 169 156 157 76 5 6 354 5 1 3 3 6 1 2 4 358 1 354 350 348 348 349 351 353 352 351 349
189 212 240 243 272 279 274 263 258 232 211 189 172 170 173 172 174 175 181 185 196 202 217 232 248 268 308 322 329 336 339 337 339 344 344 347 348 347 343 344 337 338 336 336 337 338 339 340 340
194 210 216 233 262 268 269 257 253 216 200 192 184 180 180 184 186 190 193 200 213 227 243 258 277 295 304 312 319 323 323 323 321 326 329 332 336 333 335 332 333 329 329 325 325 325 326 326 325
156 161 176 206 299 356 316 253 221 189 193 196 195 193 190 195 197 203 211 217 232 247 262 271 278 283 291 301 308 309 309 311 309 313 315 320 324 323 325 324 325 324 323 320 317 314 310 309 310
166 170 196 323 341 10 5 103 131 162 183 194 198 199 203 205 209 216 222 234 241 251 255 264 271 279 287 294 302 305 305 304 305 308 309 314 315 314 318 317 320 322 318 315 311 309 308 306 303
167 215 256 319 330 339 4 156 181 183 203 200 202 206 209 213 222 226 231 241 250 258 265 269 270 274 277 286 295 301 301 301 304 304 306 309 310 311 311 311 313 316 314 312 312 310 306 302 300
231 268 269 301 293 314 308 274 253 255 230 222 216 214 221 224 230 237 243 251 258 265 270 275 279 280 284 287 291 297 299 304 307 305 307 308 306 306 304 305 308 311 310 308 309 307 305 303 302
259 259 282 293 283 299 285 242 272 257 230 223 215 215 221 233 244 246 251 255 258 265 271 278 280 283 287 290 296 299 302 313 312 312 309 307 304 302 301 300 300 302 304 304 305 304 304 301 299
286 277 284 287 285 294 267 265 260 266 223 202 198 203 206 216 223 230 240 249 256 263 268 274 275 285 282 287 291 300 319 319 316 313 308 304 301 299 296 293 294 298 300 299 299 301 302 301 300
283 281 284 287 286 289 278 223 213 218 211 216 223 223 223 217 212 217 230 247 263 279 289 287 287 285 290 293 297 306 315 315 313 310 309 306 303 300 297 292 291 294 296 297 296 298 299 301 301
275 277 281 284 302 292 279 213 207 202 198 198 203 205 203 199 194 197 209 245 282 302 308 304 299 300 303 302 302 304 307 309 307 307 307 307 306 305 304 298 293 294 297 297 297 297 300 300 301
275 275 273 302 305 254 217 229 206 199 195 193 187 183 178 176 180 188 197 273 305 315 319 316 312 308 301 300 303 306 308 309 308 308 307 307 307 309 308 305 300 299 299 301 299 298 298 298 299
265 274 285 299 289 258 222 247 205 203 206 186 181 177 171 163 160 177 197 225 279 298 300 301 304 303 301 301 305 308 313 314 313 309 309 307 307 308 309 307 305 304 306 307 305 302 301 302 299
251 275 285 273 244 269 208 219 215 201 196 186 180 171 167 169 175 178 235 331 321 321 320 315 307 303 305 310 313 314 316 316 319 313 311 305 304 305 306 303 306 306 307 306 305 304 304 302 300
235 239 286 253 233 226 208 232 235 198 183 174 171 169 168 166 158 134 83 42 354 343 341 331 319 304 310 314 314 315 317 320 320 314 309 305 300 300 301 302 304 305 305 305 304 303 303 302 300
229 216 223 224 205 264 208 233 215 193 188 186 185 177 172 165 150 132 120 77 37 20 1 341 327 310 316 318 319 321 321 322 319 314 310 305 298 295 295 299 302 303 305 304 303 302 302 301 301
225 221 230 256 258 292 223 247 221 197 197 197 198 194 185 173 161 152 141 94 31 24 13 0 352 335 330 327 324 324 322 320 318 314 310 304 300 298 298 298 301 302 303 302 301 302 302 299 298
215 209 203 212 175 242 246 248 208 202 199 199 202 201 199 197 202 217 243 307 341 352 357 357 359 358 350 342 333 325 322 321 318 314 309 305 303 302 300 298 298 300 300 301 300 301 299 297 297
217 217 212 213 224 194 272 245 208 202 200 201 202 208 214 218 236 259 281 297 316 328 340 346 351 354 353 349 342 337 332 326 321 318 312 309 306 302 300 298 296 297 298 298 298 299 298 296 294
223 227 226 226 219 218 242 272 195 192 187 197 209 221 232 241 251 263 276 286 296 311 322 336 340 344 346 345 341 341 340 334 327 319 313 311 309 305 301 297 295 295 295 295 298 298 297 295 294